Location: Gouvernes
(48.8601°N, 2.6907°E)
Time: 21:47:42
(UTC+00:00)

In-Cosmos 22 Rocket - Pass Details

Date: 16 October 2021
Orbit: 790 x 888 km, 81.2° (Epoch: 07 December)

Event Time Altitude Azimuth Distance (km) Brightness Sun altitude
Rises 18:51:43 0° 352° (N) 3,338 7.5 -19.5°
Reaches altitude 10° 18:54:14 10° 359° (N) 2,392 6.7 -19.9°
Maximum altitude 18:59:23 44° 71° (ENE) 1,092 4.4 -20.8°
Enters shadow 18:59:49 43° 86° (E) 1,107 4.3 -20.8°
